Theta_e
311 311 311 310 309 308 300 287 280 290 299 286 285 283 289 294 293 295 293 293 290 289 290 288 289 291 297 304 302 300 298 294 292 295 300 303 299 295 294 290 287 290 291 296
311 311 310 310 309 308 301 288 284 295 295 283 285 288 290 293 292 292 291 290 293 292 288 286 291 295 302 303 302 299 299 291 288 290 295 296 296 294 292 291 290 290 291 296
311 311 311 310 309 309 296 289 282 287 291 292 290 287 287 289 295 294 294 291 294 291 289 289 289 294 301 301 303 315 307 291 297 292 292 297 294 296 295 294 288 289 293 295
311 311 311 311 310 309 296 286 283 287 281 285 287 289 290 288 288 293 292 289 291 289 284 289 288 293 294 299 302 299 296 296 295 299 299 299 298 298 295 293 293 293 296 295
311 312 311 310 309 307 295 287 290 288 285 285 287 289 287 288 290 289 289 289 292 290 286 287 286 289 288 290 294 293 294 292 294 296 300 299 299 301 297 296 295 293 295 296
311 311 311 310 308 305 293 296 297 292 286 282 285 288 288 288 290 292 293 292 289 289 292 293 293 292 292 292 289 291 291 291 290 294 296 296 293 300 299 298 297 297 294 301
311 311 311 310 308 305 297 299 297 290 281 282 285 288 290 288 290 289 293 292 288 293 297 295 291 288 289 290 292 292 291 289 291 291 292 287 298 303 303 302 302 299 299 301
311 311 311 311 309 308 298 295 295 292 282 284 286 289 288 289 291 289 291 293 293 294 291 286 287 289 289 292 294 292 293 291 291 290 292 294 300 301 301 300 303 311 310 308
310 311 311 311 310 308 298 294 297 296 288 283 289 288 288 285 286 288 291 296 295 294 286 285 283 286 287 289 291 291 292 293 292 290 289 289 297 307 310 310 304 309 317 315
310 310 311 311 311 308 299 295 297 295 290 289 288 285 285 289 289 285 287 290 291 294 287 283 282 285 291 288 287 285 288 290 290 290 290 295 304 306 311 296 298 309 313 313
310 310 311 311 311 310 301 295 297 296 292 292 293 294 289 289 288 284 286 286 288 289 285 285 286 288 292 291 294 290 288 288 288 291 290 290 305 306 302 304 309 314 315 312
310 310 310 310 311 310 304 295 298 301 296 292 294 296 298 296 295 288 286 285 284 287 285 285 286 287 291 290 291 295 289 289 286 292 296 302 303 302 304 304 310 313 316 319
309 309 309 310 310 310 307 297 297 295 290 291 288 291 296 297 298 296 286 286 288 287 290 286 286 285 289 287 290 290 293 293 291 295 298 297 301 302 302 303 305 312 318 320
309 309 309 309 310 310 309 300 299 297 294 288 286 295 293 296 295 296 296 293 289 288 288 285 285 284 290 289 289 289 292 294 292 294 295 297 302 301 301 303 306 307 317 319
309 309 309 309 309 309 308 304 301 301 294 287 287 292 294 292 293 293 294 292 287 285 284 283 283 285 287 288 289 286 293 293 290 290 294 294 295 299 302 303 303 306 315 317
308 309 309 309 309 309 303 294 301 301 300 292 288 291 292 294 293 292 291 289 287 286 284 283 284 288 287 283 282 291 293 292 295 292 296 296 298 300 303 302 305 310 316 319
308 309 308 308 308 306 297 294 301 305 304 294 289 287 292 294 292 290 289 289 289 288 285 284 285 286 287 282 281 288 293 293 294 297 297 295 298 296 301 304 306 311 318 320
308 308 308 308 308 307 301 304 306 305 298 295 286 286 289 299 295 291 289 288 287 287 287 285 285 285 285 282 288 291 293 294 293 295 298 297 299 299 300 302 306 311 315 318
308 308 309 305 302 298 300 308 307 303 297 289 288 285 283 297 296 298 295 291 285 289 285 285 286 284 282 287 288 289 292 291 292 294 296 297 297 297 298 302 308 310 314 315
308 304 299 296 300 309 306 299 294 293 294 292 286 292 287 290 292 293 293 294 290 285 287 288 284 287 292 292 291 290 292 294 295 292 292 293 294 296 297 302 307 308 314 315
303 300 298 303 309 301 296 289 288 288 285 288 289 290 288 293 287 289 294 291 292 286 289 287 284 282 289 294 295 296 295 294 293 294 295 295 295 295 296 299 302 304 312 314
302 302 304 303 298 294 289 286 286 285 285 289 287 290 291 293 296 292 293 290 290 286 294 290 287 290 292 296 297 297 297 296 295 296 296 297 298 298 297 298 300 304 313 316
305 302 299 297 296 290 289 288 287 285 288 289 290 290 293 294 295 292 291 287 287 291 288 287 291 297 299 300 300 300 299 300 302 302 300 298 298 299 300 300 306 313 315 318
301 300 292 297 296 296 297 298 299 301 294 291 292 293 292 294 290 290 285 288 286 283 283 285 291 295 298 302 302 300 298 299 299 301 303 303 299 299 307 312 316 318 319 321
302 303 293 297 303 303 304 304 302 300 297 295 294 294 294 289 287 286 286 285 284 285 285 288 297 302 305 304 298 299 297 297 299 301 299 298 298 301 305 316 317 318 319 320
301 300 297 299 297 299 302 303 301 296 295 297 297 294 292 291 290 288 286 285 285 289 297 301 303 302 305 306 308 303 300 299 301 302 298 299 302 309 317 318 314 316 318 318
300 298 300 298 297 297 297 299 300 302 297 296 299 296 295 299 294 293 294 294 295 301 303 305 306 304 304 306 308 309 309 310 311 311 312 314 315 316 316 315 317 315 319 320
Wind_Speed
18 19 19 19 19 20 6 3 5 6 8 5 2 1 8 9 13 5 7 6 8 7 6 5 4 4 4 8 5 17 9 8 7 7 4 8 9 11 9 7 5 1 6 13
19 19 19 18 16 14 4 4 4 6 4 5 5 8 6 5 9 5 5 5 9 10 6 5 6 5 2 13 10 10 10 4 3 5 7 2 6 6 6 5 5 9 8 10
19 19 19 19 16 12 3 3 5 6 5 0 4 7 5 8 10 5 8 6 8 7 8 8 8 8 6 11 7 10 2 7 21 12 5 6 6 6 7 9 5 6 9 6
18 19 19 16 13 8 3 1 3 2 5 4 5 5 5 9 8 5 7 8 11 8 4 1 3 4 7 5 10 8 3 14 9 15 8 6 7 6 10 9 9 10 11 10
18 18 17 14 11 6 2 1 3 4 5 5 5 2 1 8 8 5 5 9 18 5 4 5 6 4 2 4 8 7 7 3 7 12 15 8 7 8 9 8 4 5 6 10
17 17 16 13 8 2 1 1 1 2 5 5 2 2 5 6 16 9 7 7 5 6 6 7 12 10 8 7 2 3 5 3 5 20 5 6 7 18 8 5 5 9 8 15
18 16 15 12 5 4 2 2 1 2 5 1 5 7 7 10 16 7 9 7 4 7 16 14 5 6 9 5 10 6 1 1 2 6 7 8 12 9 10 9 2 5 5 8
18 17 16 14 7 2 3 1 2 2 5 4 11 8 9 11 11 4 9 6 6 13 6 3 4 2 1 6 9 7 7 3 2 6 9 5 3 3 10 8 3 3 6 11
18 18 17 14 10 3 3 3 3 2 3 4 7 6 7 5 7 9 4 11 10 6 4 2 2 2 2 2 9 4 6 1 3 0 9 7 1 15 16 9 1 7 3 8
18 18 18 17 13 3 4 3 5 1 3 5 2 3 2 4 3 4 6 11 9 6 6 5 4 2 3 2 3 4 3 2 5 2 4 3 16 23 12 8 4 15 10 9
18 18 18 17 15 6 5 4 5 4 3 7 10 12 8 3 2 2 6 7 6 5 7 4 3 3 4 3 3 4 2 2 3 3 5 3 23 7 10 6 8 9 9 7
18 18 18 17 16 9 7 2 1 3 4 7 3 6 10 8 13 4 3 3 2 3 3 3 2 3 3 4 2 5 4 4 3 1 5 4 4 6 4 6 8 10 9 15
18 18 18 17 15 10 9 3 2 1 2 6 1 11 12 9 15 8 3 3 5 1 3 2 1 2 2 3 3 4 5 4 2 3 3 12 5 6 12 13 12 15 12 14
17 16 16 16 12 9 7 3 3 2 1 4 7 4 7 4 6 9 12 11 1 2 3 1 0 1 1 2 3 1 3 5 3 3 7 11 5 14 15 19 18 17 18 12
16 15 16 14 9 7 3 3 4 4 2 3 6 9 8 2 6 9 10 9 4 2 1 2 3 2 1 3 2 3 3 2 2 1 5 4 9 13 14 15 17 18 16 22
14 14 15 12 8 8 2 1 0 5 5 2 4 4 7 5 5 7 6 6 4 4 5 4 3 4 3 2 3 6 3 1 4 1 5 8 11 11 5 11 16 16 15 13
13 12 12 12 10 2 3 3 3 2 3 2 4 4 5 5 2 1 1 2 4 5 4 4 4 3 5 3 6 10 14 14 17 11 8 15 4 8 13 11 16 14 11 12
12 11 11 7 2 5 3 3 2 4 2 0 3 5 5 4 4 4 1 2 1 1 5 1 3 1 3 6 11 16 19 16 16 16 11 13 14 9 10 8 13 13 11 12
10 9 2 1 2 1 1 5 8 2 1 2 2 2 3 5 1 2 3 2 0 1 4 4 5 4 8 13 13 13 9 8 8 8 9 7 6 9 10 7 9 9 10 10
4 1 0 1 1 9 8 2 2 2 1 2 3 2 3 3 3 2 3 2 2 2 5 3 4 14 20 19 13 9 10 14 14 13 12 13 11 8 7 8 6 10 12 11
1 1 2 0 6 0 2 1 1 1 2 3 2 3 2 3 2 2 3 3 2 3 3 2 4 6 9 15 20 20 19 14 13 13 13 10 8 9 8 7 7 12 15 11
2 1 1 1 1 1 2 1 1 3 3 2 2 2 3 3 2 2 1 2 2 5 4 4 5 4 4 5 7 6 4 7 15 16 18 18 17 13 7 7 9 14 14 12
1 1 1 1 0 3 5 6 2 3 4 3 3 2 2 1 0 2 2 2 4 5 3 4 5 7 11 15 17 20 9 9 8 7 10 17 19 15 9 10 12 13 12 11
2 3 7 5 6 4 3 5 5 2 2 4 2 1 2 2 1 2 2 1 2 3 3 5 8 21 22 16 16 18 13 10 10 11 13 17 18 13 9 10 13 11 10 8
3 3 5 4 4 4 6 5 3 1 3 3 2 2 1 2 2 1 3 3 3 1 4 5 11 16 15 11 7 6 8 8 10 11 10 11 11 10 8 6 7 7 5 6
3 5 4 4 3 7 8 9 7 4 3 2 1 1 2 2 1 2 4 6 4 3 5 6 8 18 15 15 13 2 7 9 12 8 9 9 8 8 7 3 2 4 5 6
3 2 2 3 3 5 4 3 6 1 0 3 2 6 6 3 4 2 1 9 3 9 9 7 8 17 17 17 14 14 15 13 10 7 9 7 8 6 8 8 6 4 7 8
Wind_Direction
330 330 331 333 336 337 43 20 339 308 354 62 18 20 311 295 303 309 254 256 225 240 278 294 292 261 12 339 224 195 192 157 214 199 208 180 172 176 156 136 219 185 165 257
328 328 329 330 331 342 333 322 265 307 38 47 347 311 294 284 2 317 312 298 280 283 287 293 233 272 19 9 23 196 170 198 180 298 305 153 177 170 123 112 102 189 149 254
327 326 328 327 324 329 83 9 338 323 23 187 357 344 313 326 327 280 338 256 311 286 257 210 272 344 318 334 13 349 266 149 210 219 218 145 160 159 167 149 149 173 221 240
325 325 328 335 343 347 88 68 267 246 307 325 309 339 307 328 335 319 325 334 344 307 264 305 177 327 311 306 1 1 91 206 186 210 182 157 180 170 168 179 185 180 228 196
322 327 337 343 338 344 82 272 331 339 276 290 326 331 7 298 330 280 309 350 329 13 60 356 313 1 296 273 330 2 341 273 146 228 212 196 213 210 180 198 181 193 234 245
321 325 336 346 4 65 0 215 51 251 278 309 328 353 323 310 306 297 299 314 313 316 306 308 266 244 250 234 295 307 18 67 132 229 181 114 259 220 178 169 171 161 201 235
320 318 320 336 341 157 171 261 258 277 276 309 270 289 305 299 304 283 294 328 330 261 311 300 252 231 244 264 259 216 304 63 118 185 96 203 250 215 173 178 207 242 237 227
317 319 314 314 319 223 159 206 208 219 269 234 288 265 329 314 298 293 302 336 272 291 295 354 349 322 220 246 237 203 199 129 147 159 177 231 248 186 148 142 107 45 293 282
309 311 314 314 298 275 136 217 189 247 286 256 251 324 314 305 338 331 295 323 310 334 41 48 100 131 313 300 332 90 130 51 117 193 133 175 32 320 332 114 60 352 344 316
304 308 309 311 307 241 147 234 192 174 259 274 177 232 297 297 333 272 299 341 328 19 7 40 35 342 303 360 31 334 351 6 190 239 121 25 349 314 308 100 234 327 332 316
301 302 303 306 309 285 145 235 191 171 237 277 267 261 260 287 218 273 300 343 352 342 29 19 338 351 5 328 10 351 53 27 351 314 80 66 344 28 64 297 299 317 328 317
299 297 298 301 305 289 153 240 217 158 218 260 240 236 233 231 239 206 274 227 260 254 28 349 343 340 342 338 1 350 31 113 228 33 136 199 353 78 337 318 291 334 319 325
297 300 301 302 305 297 195 195 210 90 274 282 279 247 261 231 228 184 175 277 233 271 175 203 271 347 355 5 3 309 357 44 34 41 332 337 243 4 -0 348 336 324 329 321
299 300 301 299 303 299 214 173 180 151 225 276 280 297 277 203 158 179 207 230 62 63 61 56 320 294 336 281 276 262 253 343 327 347 332 342 311 349 341 333 340 337 337 339
306 305 299 301 306 295 270 194 199 185 192 273 279 291 267 194 196 197 207 214 159 130 78 104 249 265 345 312 328 254 214 219 82 224 261 214 284 311 322 336 337 331 335 336
308 305 298 298 294 281 121 287 245 192 164 267 291 283 292 307 217 194 185 185 163 159 156 201 235 255 111 277 268 267 243 128 144 265 286 268 272 285 317 330 321 323 324 337
311 307 301 295 279 200 166 194 136 85 122 252 287 286 274 288 11 11 161 121 182 149 171 202 195 227 139 169 244 260 287 297 298 298 311 300 264 304 324 316 314 313 316 341
317 314 315 316 256 148 168 198 141 123 119 236 275 274 320 337 358 338 27 172 82 258 190 86 181 43 152 243 227 239 251 253 262 269 260 252 283 304 306 315 317 322 336 339
319 310 307 43 48 99 287 144 134 68 90 243 234 260 273 347 260 262 328 79 149 236 196 208 145 198 220 227 206 220 229 200 236 245 266 262 255 287 303 306 312 319 318 329
324 119 98 53 262 128 112 67 63 30 86 226 257 294 280 358 350 8 358 316 260 305 246 106 206 243 246 244 225 204 207 216 225 249 257 267 272 254 280 290 301 303 298 310
81 63 68 322 111 152 47 87 252 179 247 213 249 245 262 307 270 280 167 296 301 261 298 216 255 271 241 243 242 239 230 207 209 219 232 230 242 266 271 280 288 298 294 291
173 217 159 138 239 57 292 310 261 228 270 199 209 247 209 249 290 266 256 265 214 253 333 251 254 261 279 293 290 296 303 247 222 219 234 246 244 235 235 252 271 278 274 283
152 183 184 160 305 336 20 332 306 280 191 207 208 214 242 209 277 277 291 274 257 333 252 262 261 287 277 270 265 263 237 231 225 229 233 242 245 245 224 249 256 258 264 266
53 2 9 23 6 339 318 305 299 325 138 161 190 217 226 170 152 347 265 294 281 278 267 265 289 300 295 286 263 228 217 218 229 230 247 235 223 228 227 232 242 248 255 240
48 26 22 350 304 272 261 263 290 89 119 140 172 249 45 34 36 334 294 291 271 302 278 265 307 334 343 3 22 146 186 216 244 242 228 206 196 205 240 256 247 228 219 187
64 46 359 308 350 344 4 1 358 159 156 127 193 199 236 87 129 332 347 336 331 272 314 303 338 343 359 14 29 153 212 230 245 230 193 188 180 190 182 188 146 113 151 136
54 319 226 226 259 257 286 318 316 37 91 1 12 18 29 305 359 344 333 9 360 11 12 337 19 16 14 16 23 31 29 35 41 72 138 123 104 126 117 78 40 55 94 98